Location: Kawakawa
(35.3830°S, 174.0670°E)
Time: 23:57:33
(UTC+12:00)

ATLAS 3B R/B - Pass Details

Date: 24 January 2019
Orbit: 1029 x 1166 km, 63.8° (Epoch: 20 April)

Event Time Altitude Azimuth Distance (km) Brightness Sun altitude
Exits shadow 22:18:12 21° 82° (E) 2,291 4.0 -18.1°
Drops below altitude 10° 22:22:32 10° 119° (ESE) 3,030 4.9 -18.7°
Sets 22:25:59 0° 134° (SE) 4,019 5.7 -19.3°
